Showing default

KONDOR FKA 2, 62138

Orbit data source: Space-Track

KONDOR FKA 2, 62138 is a payload satellite owned by NPO Mash (CIS) in SSO that was launched on Fri, 29 Nov 2024 UTC via a SOYUZ-2-1A launch vehicle from the Vostochny Cosmodrome (VOSTO). Payload-class satellites include a variety of spacecraft equipped with specific instruments for various scientific and technological missions. These include communications satellites like Starlink; space stations such as the ISS; scientific satellites like the Hubble; Earth observation satellites from companies like Planet Labs, Umbra, and HawkEye 360; GPS; miniature CubeSats for education and research; and military/defense satellites.

Loading next visibility...
Identifier
62138, 2024-223A
Orbit
SSO
Country
Flag of CISCIS
Related business
Manufacturer
NPOMA?
Mission
Operational Civil Radar Imaging
Bus & Motor
KONDOR, Unknown motor
Mass
1,050 kg wet, 1,050 kg dry
Launch date (UTC)
2024-11-29 (2 years ago)
Launch vehicle
SOYUZ-2-1A
Launch site
Vostochny Cosmodrome (VOSTO)
Object type
Payload
Rocket body
Debris
Shape & HBR
Box + 2 Pan + 1 Dish, 2.5 m
Radar Cross Section
3.234 m², Large (>1 m²)

Expand to show TLE details & history
Last TLE update: 14 hours ago

TLE from 14 hours ago
0 KONDOR FKA 2
1 62138U 24223A   26264.70555260  .00002292  00000-0  11039-3 0  9995
2 62138  97.4422 106.7623 0001761  87.1894 272.9542 15.19747771100367
Epoch: 2026-09-21T16:55Z
TLE epoch observation values (Epoch: 2026-09-21T16:55:59.744Z)
Latitude
-0.00008°
Longitude
-147.81817°
Altitude
509.629 km
Speed
7.609 km/s
True Right ascension
07h 07m 02s
True Declination
0° 00' 00"
Sunlit
Object was in daylight at epoch
Visualization orbit readout
Latitude
Unknown
Longitude
Unknown
Altitude
Unknown
Speed
Unknown
Apparent Right ascension
Unknown
Apparent Declination
Unknown
Sunlit
N/A
Visualization observer readout
Local Sidereal Time
23:43:12
Azimuth
Unknown
Elevation
Unknown
Doppler factor
Unknown
Orbital elements
Apogee altitude
504.782 km
Perigee altitude
502.358 km
Semi-major axis
6,881.707 km
Eccentricity
0.00018
Inclination
97.4422°
RAAN
106.7623°
Arg. of periapsis
87.1894°
True anomaly
272.93405°
Mean anomaly
272.9542°
Eccentric anomaly
272.94412°
Mean motion
3.80188 °/min
Orbital period
94.69 mins
BSTAR
0.00011039
Loading maneuver chart data...
Computing Atmospheric mass density...
Loading historical data...
Loading historical data...
Loading historical data...
Loading historical data...
Loading historical data...
Loading historical data...
Loading historical data...
Other satellites on launch #223 in the year 2024 (2024-11-29 UTC)

Documentation

Showing up to 5 results
|